(298467) = 2003 UW169 = 2007 TF159

Discovered at Kitt Peak on 2003-10-22 by Spacewatch.

Orbit

Orbit type: Main Belt

Note: WebGL enabled browser required.

epoch2023-09-13.0
epoch JD2460200.5
perihelion date2019-09-11.28976
perihelion JD2458737.78976
argument of perihelion (°)89.44355
ascending node (°)261.13018
inclination (°)4.63010
eccentricity0.2516905
perihelion distance (AU)1.9001543
Tisserand w.r.t. Jupiter3.4
ΔV w.r.t. Earth (km/sec)8.8
semimajor axis (AU)2.5392625
mean anomaly (°)356.28763
mean daily motion (°/day)0.24358050
aphelion distance (AU)3.178
period (years)4.05
P-vector [x]0.98327294
P-vector [y]-0.18191019
P-vector [z]0.00911088
Q-vector [x]0.16374708
Q-vector [y]0.90478609
Q-vector [z]0.39312725
absolute magnitude17.52
phase slope0.15
uncertainty0
referenceMPEC 2024-A34
observations used462
oppositions12
arc length (days)7911
first opposition used2002
last opposition used2023
residual rms (arc-secs)0.68
perturbers coarse indicatorM-v
perturbers precise indicator003Ek
first observation date used2002-04-09.0
last observation date used2023-12-06.0
computer nameMPCLINUX
JD of orbit computation2456819.574377
perihelion JD uncertainty (days)1.5256E-04
argument of perihelion uncertainty (°)2.0501E-04
ascending node uncertainty (°)1.9812E-04
inclination uncertainty (°)1.3160E-05
eccentricity uncertainty 3.0145E-07
perihelion distance uncertainty (AU)7.9040E-07
Minimum Orbit Intersection Distances (in AU)
for orbit epoch: 2460200.5, reference: E2024-A34
Mercury1.52843
Venus1.18447
Earth0.90054
Mars0.54068
Jupiter2.28154
Saturn6.18782
Uranus15.2867
Neptune27.3722

Observations

471 total observations over interval: 2002 04 09.24022 – 2023 12 06.175672
These data are available for download (format description).

Date (UT) J2000 RA J2000 Dec Magn Location Ref
2002 04 09.24022 14 46 08.89 -21 05 18.2 20.1 R 807 – Cerro Tololo Observatory, La Serena MPS 222481
2002 04 09.30375 14 46 06.05 -21 05 06.7   807 – Cerro Tololo Observatory, La Serena MPS 222481
2003 10 03.38140 02 43 51.23 +22 59 05.0 20.4 V 691 – Steward Observatory, Kitt Peak-Spacewatch MPS 91906
2003 10 03.40805 02 43 50.51 +22 59 02.1 20.3 V 691 – Steward Observatory, Kitt Peak-Spacewatch MPS 91906
2003 10 03.43481 02 43 49.79 +22 58 59.0 20.6 V 691 – Steward Observatory, Kitt Peak-Spacewatch MPS 91906
2003 10 17.45859 02 35 12.69 +22 09 21.3 19.5 R 699 – Lowell Observatory-LONEOS MPS 90654
2003 10 17.46858 02 35 12.20 +22 09 17.6   699 – Lowell Observatory-LONEOS MPS 90654
2003 10 17.47853 02 35 11.67 +22 09 15.6   699 – Lowell Observatory-LONEOS MPS 90654
2003 10 17.48856 02 35 11.24 +22 09 10.4   699 – Lowell Observatory-LONEOS MPS 90654
2003 10 22.35717 02 31 08.17 +21 41 52.8 19.9 V 691 – Steward Observatory, Kitt Peak-Spacewatch MPS 89798
2003 10 22.38436 02 31 06.67 +21 41 42.6 20.0 V 691 – Steward Observatory, Kitt Peak-Spacewatch MPS 89798
2003 10 22.41462 02 31 05.01 +21 41 31.4 20.0 V 691 – Steward Observatory, Kitt Peak-Spacewatch MPS 89798
2003 10 23.28155 02 30 19.91 +21 36 12.2 19.4 R 699 – Lowell Observatory-LONEOS MPS 89798
2003 10 23.31701 02 30 18.10 +21 35 57.6   699 – Lowell Observatory-LONEOS MPS 89798
2003 10 23.33703 02 30 16.86 +21 35 49.3   699 – Lowell Observatory-LONEOS MPS 89798
2003 10 23.35705 02 30 15.77 +21 35 42.6   699 – Lowell Observatory-LONEOS MPS 89798
2003 11 18.21960 02 09 03.30 +18 25 53.3 19.6 R 699 – Lowell Observatory-LONEOS MPS 92785
2003 11 18.23943 02 09 02.30 +18 25 46.0   699 – Lowell Observatory-LONEOS MPS 92785
2003 11 18.25932 02 09 01.37 +18 25 38.3   699 – Lowell Observatory-LONEOS MPS 92785
2003 11 18.27920 02 09 00.74 +18 25 27.8   699 – Lowell Observatory-LONEOS MPS 92785
2003 11 20.20942 02 07 54.43 +18 11 43.3 19.6 C 704 – Lincoln Laboratory ETS, New Mexico MPS 290179
2003 11 20.22254 02 07 54.02 +18 11 35.9 19.5 C 704 – Lincoln Laboratory ETS, New Mexico MPS 290179
2003 11 20.23561 02 07 53.62 +18 11 31.7 19.0 C 704 – Lincoln Laboratory ETS, New Mexico MPS 290179
2003 11 20.26138 02 07 52.50 +18 11 17.7 19.1 C 704 – Lincoln Laboratory ETS, New Mexico MPS 290179
2003 11 24.18560 02 05 58.12 +17 44 47.1 20.0   704 – Lincoln Laboratory ETS, New Mexico MPS 91906
2003 11 24.20004 02 05 57.79 +17 44 43.3 20.2   704 – Lincoln Laboratory ETS, New Mexico MPS 91906
2003 11 24.20444 02 05 57.68 +17 44 40.4 20.3   704 – Lincoln Laboratory ETS, New Mexico MPS 91906
2003 11 24.21242 02 05 57.51 +17 44 38.7 20.4   704 – Lincoln Laboratory ETS, New Mexico MPS 91906
2003 11 24.22491 02 05 57.03 +17 44 33.1 20.7   704 – Lincoln Laboratory ETS, New Mexico MPS 91906
2003 11 24.22934 02 05 56.99 +17 44 31.3 20.4   704 – Lincoln Laboratory ETS, New Mexico MPS 91906
2003 11 24.23732 02 05 56.73 +17 44 28.8 20.3   704 – Lincoln Laboratory ETS, New Mexico MPS 91906
2003 11 24.24163 02 05 56.54 +17 44 26.4 20.1   704 – Lincoln Laboratory ETS, New Mexico MPS 91906
2003 11 30.06179 02 04 00.68 +17 09 19.6 21.0 V 691 – Steward Observatory, Kitt Peak-Spacewatch MPS 92785
2003 11 30.08912 02 04 00.24 +17 09 10.8 20.8 V 691 – Steward Observatory, Kitt Peak-Spacewatch MPS 92785
2003 11 30.11640 02 03 59.80 +17 09 02.1 20.7 V 691 – Steward Observatory, Kitt Peak-Spacewatch MPS 92785
2007 10 09.27915 01 46 35.15 +19 21 15.3 20.0   704 – Lincoln Laboratory ETS, New Mexico MPS 220877
2007 10 09.29012 01 46 34.57 +19 21 10.8 20.0   704 – Lincoln Laboratory ETS, New Mexico MPS 220877
2007 10 09.30107 01 46 33.94 +19 21 07.4 19.9   704 – Lincoln Laboratory ETS, New Mexico MPS 220877
2007 10 12.25505 01 44 14.43 +19 04 11.6 19.4   704 – Lincoln Laboratory ETS, New Mexico MPS 220877
2007 10 12.26628 01 44 13.85 +19 04 08.7 20.0   704 – Lincoln Laboratory ETS, New Mexico MPS 220877
2007 10 12.27751 01 44 13.28 +19 04 04.1 19.9   704 – Lincoln Laboratory ETS, New Mexico MPS 220877
2007 10 12.28090 01 44 13.11 +19 04 01.7 19.6 r 699 – Lowell Observatory-LONEOS MPS 223404
2007 10 12.28883 01 44 12.70 +19 03 59.9 19.6   704 – Lincoln Laboratory ETS, New Mexico MPS 220877
2007 10 12.30005 01 44 12.11 +19 03 55.4 19.7   704 – Lincoln Laboratory ETS, New Mexico MPS 220877
2007 10 12.30650 01 44 11.84 +19 03 53.8 19.1 r 699 – Lowell Observatory-LONEOS MPS 223404
2007 10 12.33212 01 44 10.49 +19 03 44.0 19.4 r 699 – Lowell Observatory-LONEOS MPS 223404
2007 10 12.35775 01 44 09.19 +19 03 34.3 18.9 r 699 – Lowell Observatory-LONEOS MPS 223404
2007 10 15.25495 01 41 47.28 +18 45 14.4 19.5   704 – Lincoln Laboratory ETS, New Mexico MPS 244643
2007 10 15.26619 01 41 46.69 +18 45 10.2 19.7   704 – Lincoln Laboratory ETS, New Mexico MPS 244643
2007 10 15.27743 01 41 46.24 +18 45 05.6 19.5   704 – Lincoln Laboratory ETS, New Mexico MPS 244643
2007 10 15.28868 01 41 45.51 +18 45 01.4 19.7   704 – Lincoln Laboratory ETS, New Mexico MPS 244643
2007 10 15.29996 01 41 45.02 +18 44 57.3 19.9   704 – Lincoln Laboratory ETS, New Mexico MPS 244643
2007 10 17.37435 01 40 01.45 +18 30 53.0 19.2 V G96 – Mt. Lemmon Survey MPS 223404
2007 10 17.37978 01 40 01.16 +18 30 50.6 19.2 V G96 – Mt. Lemmon Survey MPS 223404
2007 10 17.38529 01 40 00.87 +18 30 48.3 19.2 V G96 – Mt. Lemmon Survey MPS 223404
2007 10 17.39069 01 40 00.62 +18 30 46.1 19.3 V G96 – Mt. Lemmon Survey MPS 223404
2007 11 02.25011 01 27 45.30 +16 29 48.6 19.6   704 – Lincoln Laboratory ETS, New Mexico MPS 224789
2007 11 02.26174 01 27 44.76 +16 29 42.5 20.2   704 – Lincoln Laboratory ETS, New Mexico MPS 224789
2007 11 02.28502 01 27 43.76 +16 29 30.8 20.0   704 – Lincoln Laboratory ETS, New Mexico MPS 224789
2007 11 02.29667 01 27 43.27 +16 29 25.4 19.7   704 – Lincoln Laboratory ETS, New Mexico MPS 224789
2007 11 07.25277 01 24 46.23 +15 51 18.6 19.1   704 – Lincoln Laboratory ETS, New Mexico MPS 224789
2007 11 07.26504 01 24 45.74 +15 51 12.8 19.6   704 – Lincoln Laboratory ETS, New Mexico MPS 224789
2007 11 07.27826 01 24 45.30 +15 51 08.0 19.9   704 – Lincoln Laboratory ETS, New Mexico MPS 224789
2007 11 07.29057 01 24 44.94 +15 51 02.4 19.6   704 – Lincoln Laboratory ETS, New Mexico MPS 224789
2007 11 07.30292 01 24 44.49 +15 50 56.5 19.8   704 – Lincoln Laboratory ETS, New Mexico MPS 224789
2007 11 18.24110 01 20 40.28 +14 36 35.5 20.9   704 – Lincoln Laboratory ETS, New Mexico MPS 228249
2007 11 18.25351 01 20 40.18 +14 36 30.5 20.4   704 – Lincoln Laboratory ETS, New Mexico MPS 228249
2007 11 18.26593 01 20 40.00 +14 36 27.4 20.8   704 – Lincoln Laboratory ETS, New Mexico MPS 228249
2010 05 07.22331 13 44 12.55 -16 08 29.6 21.0 V G96 – Mt. Lemmon Survey MPS 324852
2010 05 07.22929 13 44 12.22 -16 08 26.2 21.0 V G96 – Mt. Lemmon Survey MPS 324852
2010 05 07.23523 13 44 11.94 -16 08 24.2 21.3 V G96 – Mt. Lemmon Survey MPS 324852
2010 05 07.24117 13 44 11.65 -16 08 22.4 21.5 V G96 – Mt. Lemmon Survey MPS 324852
2010 05 07.29790 13 44 08.70 -16 08 00.6 21.6 V G96 – Mt. Lemmon Survey MPS 324852
2010 05 07.30119 13 44 08.52 -16 08 00.0 20.9 V G96 – Mt. Lemmon Survey MPS 324852
2010 05 07.30453 13 44 08.34 -16 07 59.0 21.5 V G96 – Mt. Lemmon Survey MPS 324852
2010 05 07.30788 13 44 08.16 -16 07 57.3 21.1 V G96 – Mt. Lemmon Survey MPS 324852
2011 06 11.57193 23 45 06.427 +03 19 51.84 21.8 w F51 – Pan-STARRS 1, Haleakala MPS 384650
2011 06 11.57747 23 45 06.977 +03 19 56.48 21.8 w F51 – Pan-STARRS 1, Haleakala MPS 384650
2011 06 11.58299 23 45 07.534 +03 20 01.00 22.0 w F51 – Pan-STARRS 1, Haleakala MPS 384650
2011 06 11.58852 23 45 08.077 +03 20 05.45 21.8 w F51 – Pan-STARRS 1, Haleakala MPS 384650
2011 09 20.03895 01 04 57.36 +16 27 43.1 18.7 R B18 – Terskol MPS 391078
2011 09 20.04175 01 04 57.22 +16 27 42.5 18.6 R B18 – Terskol MPS 391078
2011 09 20.04314 01 04 57.19 +16 27 42.5 18.8 R B18 – Terskol MPS 391078
2011 09 21.28400 01 04 14.98 +16 24 18.0 19.1 V 703 – Catalina Sky Survey MPS 391078
2011 09 21.29131 01 04 14.73 +16 24 16.9 19.6 V 703 – Catalina Sky Survey MPS 391078
2011 09 21.29868 01 04 14.41 +16 24 15.1 19.6 V 703 – Catalina Sky Survey MPS 391078
2011 09 21.30605 01 04 14.08 +16 24 14.7 19.6 V 703 – Catalina Sky Survey MPS 391078
